| time (UTC) | temp F | wind direction | speed MPH | gust MPH | rain 1hr in | rain 24hr in | rain mn in | humidity % | barometer mb |
| 20260831110858 | 59 | 271 | 1.0 | 1.0 | 0.00 | 0.00 | 0.00 | 99 | 1075.7 |
| 20260831105857 | 59 | 271 | 1.0 | 1.0 | 0.00 | 0.00 | 0.00 | 99 | 1075.2 |
| 20260831104853 | 59 | 91 | 2.0 | 2.0 | 0.00 | 0.00 | 0.00 | 99 | 1075.2 |
| 20260831103849 | 60 | 255 | 0.0 | 0.0 | 0.00 | 0.00 | 0.00 | 99 | 1075.2 |
| 20260831102846 | 59 | 266 | 0.0 | 0.0 | 0.00 | 0.00 | 0.00 | 99 | 1075.2 |
| 20260831101842 | 59 | 264 | 0.0 | 0.0 | 0.00 | 0.00 | 0.00 | 99 | 1075.1 |
| 20260831100839 | 59 | 266 | 0.0 | 0.0 | 0.00 | 0.00 | 0.00 | 99 | 1075.0 |
| 20260831095834 | 59 | 276 | 0.0 | 0.0 | 0.00 | 0.00 | 0.00 | 99 | 1074.9 |
| 20260831094829 | 59 | 270 | 0.0 | 0.0 | 0.00 | 0.00 | 0.00 | 99 | 1074.9 |
| 20260831093826 | 59 | 270 | 0.0 | 0.0 | 0.00 | 0.00 | 0.00 | 99 | 1074.7 |
| 20260831092823 | 60 | 245 | 0.0 | 0.0 | 0.00 | 0.00 | 0.00 | 99 | 1074.9 |
| 20260831091819 | 59 | 268 | 0.0 | 0.0 | 0.00 | 0.00 | 0.00 | 99 | 1074.7 |
| 20260831090816 | 59 | 321 | 0.0 | 1.0 | 0.00 | 0.00 | 0.00 | 99 | 1074.5 |
| 20260831085814 | 59 | 277 | 0.0 | 0.0 | 0.00 | 0.00 | 0.00 | 99 | 1074.4 |
| 20260831084809 | 59 | 283 | 0.0 | 0.0 | 0.00 | 0.00 | 0.00 | 99 | 1074.6 |
| 20260831083807 | 60 | 287 | 0.0 | 0.0 | 0.00 | 0.00 | 0.00 | 99 | 1074.4 |
| 20260831082807 | 60 | 288 | 0.0 | 0.0 | 0.00 | 0.00 | 0.00 | 99 | 1074.6 |
| 20260831081803 | 61 | 303 | 0.0 | 0.0 | 0.00 | 0.00 | 0.00 | 99 | 1074.7 |
| 20260831080800 | 62 | 87 | 1.0 | 2.0 | 0.00 | 0.00 | 0.00 | 99 | 1074.7 |
| 20260831075757 | 61 | 272 | 0.0 | 0.0 | 0.00 | 0.00 | 0.00 | 99 | 1074.7 |
| 20260831074758 | 61 | 277 | 0.0 | 0.0 | 0.00 | 0.00 | 0.00 | 99 | 1074.7 |
| 20260831073753 | 61 | 271 | 0.0 | 0.0 | 0.00 | 0.00 | 0.00 | 99 | 1074.6 |
| 20260831072752 | 61 | 277 | 0.0 | 0.0 | 0.00 | 0.00 | 0.00 | 99 | 1075.0 |
| 20260831071749 | 61 | 278 | 0.0 | 0.0 | 0.00 | 0.00 | 0.00 | 99 | 1074.8 |
| 20260831070744 | 61 | 277 | 0.0 | 0.0 | 0.00 | 0.00 | 0.00 | 99 | 1074.8 |
| 20260831065742 | 61 | 277 | 0.0 | 0.0 | 0.00 | 0.00 | 0.00 | 99 | 1074.7 |
| 20260831064742 | 61 | 277 | 0.0 | 0.0 | 0.00 | 0.00 | 0.00 | 99 | 1074.8 |
| 20260831063739 | 61 | 278 | 0.0 | 0.0 | 0.00 | 0.00 | 0.00 | 99 | 1074.6 |
| 20260831062739 | 61 | 277 | 0.0 | 0.0 | 0.00 | 0.00 | 0.00 | 99 | 1074.6 |
| 20260831061738 | 61 | 277 | 0.0 | 0.0 | 0.00 | 0.00 | 0.00 | 99 | 1074.9 |
| 20260831060736 | 61 | 277 | 0.0 | 0.0 | 0.00 | 0.00 | 0.00 | 99 | 1075.0 |
| 20260831055735 | 61 | 269 | 0.0 | 0.0 | 0.00 | 0.00 | 0.00 | 99 | 1075.1 |
| 20260831054730 | 61 | 278 | 0.0 | 0.0 | 0.00 | 0.00 | 0.00 | 99 | 1075.2 |
| 20260831053725 | 61 | 277 | 0.0 | 0.0 | 0.00 | 0.00 | 0.00 | 99 | 1075.2 |
| 20260831052723 | 61 | 277 | 0.0 | 0.0 | 0.00 | 0.00 | 0.00 | 99 | 1074.8 |
| 20260831051721 | 61 | 277 | 0.0 | 0.0 | 0.00 | 0.00 | 0.00 | 99 | 1074.8 |
| 20260831050720 | 61 | 280 | 0.0 | 0.0 | 0.00 | 0.00 | 0.00 | 99 | 1074.9 |
| 20260831045720 | 61 | 278 | 0.0 | 0.0 | 0.00 | 0.00 | 0.00 | 99 | 1075.0 |
| 20260831044715 | 61 | 277 | 0.0 | 0.0 | 0.00 | 0.00 | 0.00 | 99 | 1074.9 |
| 20260831043712 | 61 | 279 | 0.0 | 0.0 | 0.00 | 0.00 | 0.00 | 99 | 1075.0 |
| 20260831042712 | 61 | 272 | 0.0 | 0.0 | 0.00 | 0.00 | 0.00 | 99 | 1075.3 |
| 20260831041708 | 61 | 272 | 0.0 | 0.0 | 0.00 | 0.00 | 0.00 | 99 | 1075.2 |
| 20260831040703 | 61 | 272 | 0.0 | 0.0 | 0.00 | 0.00 | 0.00 | 99 | 1075.0 |
| 20260831035700 | 61 | 270 | 0.0 | 0.0 | 0.00 | 0.04 | 0.04 | 99 | 1075.0 |
| 20260831034700 | 61 | 270 | 0.0 | 0.0 | 0.00 | 0.04 | 0.04 | 99 | 1075.0 |
| 20260831033657 | 61 | 268 | 0.0 | 1.0 | 0.00 | 0.04 | 0.04 | 99 | 1074.9 |
| 20260831032657 | 61 | 261 | 1.0 | 1.0 | 0.00 | 0.04 | 0.04 | 99 | 1075.0 |
| 20260831031653 | 61 | 271 | 0.0 | 0.0 | 0.00 | 0.04 | 0.04 | 99 | 1075.1 |
| 20260831030651 | 61 | 263 | 1.0 | 1.0 | 0.00 | 0.04 | 0.04 | 99 | 1074.9 |
| 20260831025649 | 61 | 268 | 0.0 | 0.0 | 0.00 | 0.04 | 0.04 | 99 | 1074.8 |
| 20260831024647 | 61 | 272 | 0.0 | 0.0 | 0.00 | 0.04 | 0.04 | 99 | 1074.9 |
| 20260831023644 | 61 | 271 | 0.0 | 0.0 | 0.00 | 0.04 | 0.04 | 99 | 1074.9 |
| 20260831022638 | 61 | 263 | 0.0 | 1.0 | 0.00 | 0.04 | 0.04 | 99 | 1075.0 |
| 20260831021638 | 61 | 268 | 0.0 | 0.0 | 0.00 | 0.04 | 0.04 | 99 | 1074.7 |
| 20260831020635 | 61 | 264 | 0.0 | 1.0 | 0.00 | 0.04 | 0.04 | 99 | 1074.7 |
| 20260831015631 | 61 | 265 | 1.0 | 1.0 | 0.00 | 0.04 | 0.04 | 99 | 1074.7 |
| 20260831014631 | 61 | 263 | 0.0 | 0.0 | 0.00 | 0.04 | 0.04 | 99 | 1074.7 |
| 20260831013629 | 61 | 272 | 0.0 | 0.0 | 0.00 | 0.04 | 0.04 | 99 | 1074.7 |
| 20260831012629 | 61 | 263 | 1.0 | 1.0 | 0.00 | 0.04 | 0.04 | 99 | 1074.7 |
| 20260831011630 | 61 | 263 | 0.0 | 0.0 | 0.00 | 0.04 | 0.04 | 99 | 1074.3 |
| 20260831010627 | 61 | 259 | 0.0 | 0.0 | 0.00 | 0.04 | 0.04 | 99 | 1074.3 |
| 20260831005622 | 61 | 271 | 0.0 | 0.0 | 0.00 | 0.04 | 0.04 | 99 | 1074.2 |
| 20260831004619 | 61 | 271 | 0.0 | 0.0 | 0.00 | 0.04 | 0.04 | 99 | 1074.3 |
| 20260831003617 | 61 | 268 | 0.0 | 0.0 | 0.00 | 0.04 | 0.04 | 99 | 1074.2 |
| 20260831002616 | 61 | 258 | 0.0 | 0.0 | 0.00 | 0.04 | 0.04 | 99 | 1073.9 |
| 20260831001613 | 61 | 269 | 0.0 | 1.0 | 0.00 | 0.04 | 0.04 | 99 | 1074.0 |
| 20260831000611 | 61 | 271 | 0.0 | 0.0 | 0.00 | 0.04 | 0.04 | 99 | 1073.8 |
| 20260830235610 | 61 | 259 | 1.0 | 1.0 | 0.07 | 0.04 | 0.04 | 99 | 1073.7 |
| 20260830234605 | 61 | 267 | 0.0 | 0.0 | 0.00 | 0.03 | 0.03 | 99 | 1073.5 |
| 20260830233602 | 61 | 271 | 0.0 | 1.0 | 0.00 | 0.03 | 0.03 | 99 | 1073.7 |
| 20260830232559 | 61 | 274 | 1.0 | 1.0 | 0.00 | 0.03 | 0.03 | 99 | 1073.3 |
| 20260830231557 | 61 | 259 | 1.0 | 1.0 | 0.00 | 0.03 | 0.03 | 99 | 1073.1 |
| 20260830230551 | 61 | 277 | 0.0 | 0.0 | 0.00 | 0.03 | 0.03 | 99 | 1073.5 |
| 20260830225547 | 61 | 268 | 0.0 | 1.0 | 0.00 | 0.03 | 0.03 | 99 | 1073.7 |
| 20260830224545 | 61 | 274 | 0.0 | 0.0 | 0.00 | 0.03 | 0.03 | 99 | 1073.4 |
| 20260830223545 | 61 | 271 | 0.0 | 0.0 | 0.00 | 0.03 | 0.03 | 99 | 1073.6 |
| 20260830222545 | 61 | 263 | 1.0 | 1.0 | 0.00 | 0.03 | 0.03 | 99 | 1073.5 |
| 20260830221543 | 61 | 271 | 1.0 | 1.0 | 0.00 | 0.03 | 0.03 | 99 | 1073.3 |
| 20260830220538 | 61 | 271 | 0.0 | 0.0 | 0.00 | 0.03 | 0.03 | 99 | 1073.3 |
| 20260830215537 | 61 | 257 | 1.0 | 2.0 | 0.00 | 0.03 | 0.03 | 99 | 1073.4 |
| 20260830214533 | 61 | 279 | 1.0 | 2.0 | 0.00 | 0.03 | 0.03 | 99 | 1073.6 |
| 20260830213533 | 62 | 258 | 1.0 | 1.0 | 0.00 | 0.03 | 0.03 | 99 | 1073.5 |
| 20260830212530 | 61 | 263 | 1.0 | 2.0 | 0.05 | 0.03 | 0.03 | 99 | 1073.5 |
| 20260830211526 | 62 | 269 | 2.0 | 2.0 | 0.00 | 0.02 | 0.02 | 99 | 1073.5 |
| 20260830210526 | 62 | 278 | 0.0 | 0.0 | 0.07 | 0.02 | 0.02 | 99 | 1073.6 |
| 20260830205523 | 61 | 277 | 0.0 | 0.0 | 0.00 | 0.01 | 0.01 | 99 | 1073.8 |
| 20260830204518 | 61 | 252 | 4.0 | 5.0 | 0.00 | 0.01 | 0.01 | 99 | 1073.6 |
| 20260830203514 | 61 | 278 | 0.0 | 0.0 | 0.00 | 0.01 | 0.01 | 99 | 1073.4 |
| 20260830202509 | 61 | 264 | 1.0 | 1.0 | 0.00 | 0.01 | 0.01 | 99 | 1073.4 |
| 20260830201504 | 61 | 267 | 2.0 | 2.0 | 0.00 | 0.01 | 0.01 | 99 | 1073.6 |
| 20260830200459 | 62 | 278 | 1.0 | 2.0 | 0.00 | 0.01 | 0.01 | 99 | 1073.7 |
| 20260830195455 | 62 | 266 | 3.0 | 3.0 | 0.00 | 0.01 | 0.01 | 99 | 1073.7 |
| 20260830194452 | 63 | 255 | 2.0 | 2.0 | 0.07 | 0.01 | 0.01 | 99 | 1073.8 |
| 20260830193452 | 63 | 263 | 2.0 | 2.0 | 0.00 | 0.00 | 0.00 | 99 | 1073.8 |
| 20260830192448 | 63 | 263 | 2.0 | 2.0 | 0.00 | 0.00 | 0.00 | 99 | 1073.7 |
| 20260830191443 | 64 | 253 | 1.0 | 1.0 | 0.00 | 0.00 | 0.00 | 97 | 1074.1 |
| 20260830190440 | 65 | 265 | 1.0 | 1.0 | 0.00 | 0.00 | 0.00 | 93 | 1073.8 |
| 20260830185440 | 66 | 252 | 5.0 | 6.0 | 0.00 | 0.00 | 0.00 | 89 | 1073.7 |
| 20260830184440 | 67 | 267 | 1.0 | 1.0 | 0.00 | 0.00 | 0.00 | 84 | 1073.9 |
| 20260830183435 | 68 | 278 | 2.0 | 2.0 | 0.00 | 0.00 | 0.00 | 83 | 1073.7 |
| 20260830182432 | 69 | 270 | 1.0 | 1.0 | 0.00 | 0.00 | 0.00 | 81 | 1073.7 |
| 20260830181430 | 69 | 277 | 4.0 | 5.0 | 0.00 | 0.00 | 0.00 | 81 | 1073.6 |
| 20260830180430 | 70 | 309 | 1.0 | 2.0 | 0.00 | 0.00 | 0.00 | 79 | 1073.8 |
| 20260830175428 | 70 | 262 | 4.0 | 5.0 | 0.00 | 0.00 | 0.00 | 81 | 1073.7 |
| 20260830174426 | 69 | 270 | 1.0 | 1.0 | 0.00 | 0.00 | 0.00 | 79 | 1073.5 |
| 20260830173422 | 70 | 271 | 1.0 | 2.0 | 0.00 | 0.00 | 0.00 | 78 | 1073.7 |
| 20260830172420 | 70 | 272 | 1.0 | 1.0 | 0.00 | 0.00 | 0.00 | 78 | 1073.6 |
| 20260830171416 | 69 | 269 | 1.0 | 1.0 | 0.00 | 0.00 | 0.00 | 78 | 1073.6 |
| 20260830170416 | 69 | 260 | 2.0 | 2.0 | 0.00 | 0.00 | 0.00 | 79 | 1073.8 |
| 20260830165416 | 68 | 275 | 1.0 | 1.0 | 0.00 | 0.00 | 0.00 | 80 | 1073.9 |
| 20260830164414 | 69 | 272 | 1.0 | 1.0 | 0.00 | 0.00 | 0.00 | 79 | 1074.0 |
| 20260830163412 | 69 | 267 | 3.0 | 3.0 | 0.00 | 0.00 | 0.00 | 79 | 1074.0 |
| 20260830162408 | 69 | 246 | 3.0 | 5.0 | 0.00 | 0.00 | 0.00 | 80 | 1074.2 |
| 20260830161402 | 68 | 268 | 0.0 | 1.0 | 0.00 | 0.00 | 0.00 | 78 | 1074.0 |
| 20260830160358 | 68 | 278 | 0.0 | 0.0 | 0.00 | 0.00 | 0.00 | 78 | 1074.1 |
| 20260830155355 | 68 | 274 | 0.0 | 0.0 | 0.00 | 0.00 | 0.00 | 77 | 1074.4 |
| 20260830154353 | 69 | 284 | 1.0 | 1.0 | 0.00 | 0.00 | 0.00 | 78 | 1074.7 |
| 20260830153350 | 68 | 267 | 1.0 | 1.0 | 0.00 | 0.00 | 0.00 | 77 | 1074.4 |
| 20260830152349 | 68 | 255 | 3.0 | 3.0 | 0.00 | 0.00 | 0.00 | 76 | 1074.5 |
| 20260830151349 | 68 | 251 | 3.0 | 5.0 | 0.00 | 0.00 | 0.00 | 77 | 1074.4 |
| 20260830150349 | 67 | 293 | 0.0 | 0.0 | 0.00 | 0.00 | 0.00 | 79 | 1074.8 |
| 20260830145345 | 67 | 268 | 0.0 | 0.0 | 0.00 | 0.00 | 0.00 | 79 | 1074.5 |
| 20260830144342 | 66 | 273 | 0.0 | 0.0 | 0.00 | 0.00 | 0.00 | 82 | 1074.7 |
| 20260830143337 | 66 | 269 | 1.0 | 1.0 | 0.00 | 0.00 | 0.00 | 82 | 1074.6 |
| 20260830142333 | 65 | 269 | 1.0 | 2.0 | 0.00 | 0.00 | 0.00 | 84 | 1074.9 |
| 20260830141328 | 65 | 274 | 1.0 | 1.0 | 0.00 | 0.00 | 0.00 | 84 | 1075.1 |
| 20260830140324 | 64 | 273 | 2.0 | 2.0 | 0.00 | 0.00 | 0.00 | 83 | 1074.9 |
| 20260830135320 | 64 | 285 | 2.0 | 2.0 | 0.00 | 0.00 | 0.00 | 85 | 1074.9 |
| 20260830134315 | 64 | 277 | 3.0 | 3.0 | 0.00 | 0.00 | 0.00 | 85 | 1075.0 |
| 20260830133313 | 64 | 273 | 1.0 | 2.0 | 0.00 | 0.00 | 0.00 | 86 | 1074.8 |
| 20260830132310 | 63 | 271 | 0.0 | 1.0 | 0.00 | 0.00 | 0.00 | 85 | 1075.1 |
| 20260830131309 | 63 | 259 | 2.0 | 2.0 | 0.00 | 0.00 | 0.00 | 87 | 1075.4 |
| 20260830130305 | 62 | 267 | 1.0 | 1.0 | 0.00 | 0.00 | 0.00 | 89 | 1075.4 |
| 20260830125300 | 61 | 271 | 0.0 | 1.0 | 0.00 | 0.00 | 0.00 | 91 | 1075.4 |
| 20260830124258 | 61 | 293 | 1.0 | 1.0 | 0.00 | 0.00 | 0.00 | 94 | 1074.8 |
| 20260830123257 | 61 | 282 | 2.0 | 2.0 | 0.00 | 0.00 | 0.00 | 92 | 1074.5 |
| 20260830122255 | 61 | 280 | 2.0 | 2.0 | 0.00 | 0.00 | 0.00 | 92 | 1075.3 |
| 20260830121255 | 61 | 272 | 1.0 | 1.0 | 0.00 | 0.00 | 0.00 | 89 | 1075.4 |
| 20260830120253 | 61 | 280 | 1.0 | 2.0 | 0.00 | 0.00 | 0.00 | 89 | 1075.7 |
| 20260830115250 | 60 | 259 | 3.0 | 3.0 | 0.00 | 0.00 | 0.00 | 89 | 1075.6 |
| 20260830114247 | 58 | 264 | 1.0 | 1.0 | 0.00 | 0.00 | 0.00 | 98 | 1075.8 |
| 20260830113243 | 58 | 292 | 0.0 | 1.0 | 0.00 | 0.00 | 0.00 | 97 | 1075.6 |
| 20260830112241 | 58 | 281 | 0.0 | 0.0 | 0.00 | 0.00 | 0.00 | 95 | 1075.7 |